Location: Archemont
(49.1579°N, 1.7598°E)
Time: 15:53:42
(UTC+00:00)

MOS 1-B - Pass Details

Date: 03 February 2023
Orbit: 904 x 913 km, 99.4° (Epoch: 31 March)

Event Time Altitude Azimuth Distance (km) Brightness Sun altitude
Rises 18:14:20 0° 151° (SSE) 3,529 7.2 -13.6°
Reaches altitude 10° 18:16:45 10° 148° (SSE) 2,593 6.5 -14.0°
Maximum altitude 18:22:27 64° 69° (ENE) 1,009 4.3 -14.9°
Drops below altitude 10° 18:28:12 10° 349° (N) 2,615 6.8 -15.8°
Sets 18:30:39 0° 347° (NNW) 3,561 7.5 -16.2°
